Location: ???????
(55.4362°N, 38.1183°E)
Time: 18:21:15
(UTC+00:00)

Cosmos 2278 Rocket - Pass Details

Date: 23 October 2021
Orbit: 841 x 845 km, 71.0° (Epoch: 28 November)

Event Time Altitude Azimuth Distance (km) Brightness Sun altitude
Rises 19:44:29 0° 317° (NW) 3,417 6.1 -43.0°
Reaches altitude 10° 19:48:08 10° 294° (WNW) 2,475 5.1 -43.3°
Enters shadow 19:48:27 11° 291° (WNW) 2,417 5.0 -43.3°
